Tracking 18665 objects as of 24-June-2017
HD Live streaming from Space Station
objects crossing your sky now

SAFIR 2

Track SAFIR 2 now!
10-day predictions
SAFIR 2 is classified as:


NORAD ID: 25399
Int'l Code: 1998-043F
Perigee: 816.6 km
Apogee: 817.5 km
Inclination: 98.6 °
Period: 101.1 minutes
Semi major axis: 7188 km
RCS: 0.3985 m2 (medium)
Launch date: July 10, 1998
Source: Germany (GER)
Launch site: TYURATAM MISSILE AND SPACE COMPLEX (TTMTR)
Uplink (MHz):
Downlink (MHz):
Beacon (MHz): 2401.900
Mode: 9600bps FSK
Call sign: DP1AIS
Status: Inactive

Your satellite tracking list
Your tracking list is empty





NASA's NSSDC Master Catalog

Two Line Element Set (TLE):
1 25399U 98043F   17174.84537068 -.00000019 +00000-0 +10349-4 0  9995
2 25399 098.5761 118.7837 0000599 246.0862 114.0254 14.24584767984985
Source of the keplerian elements: AFSPC